STARLINK-5991 (56331 NORAD) Tracking and Keplerian Element Data

This shows tracking and keplerian element data for the satellite.

Feedback or suggestion? Click here.




ElementValue
Catalog56331
NameSTARLINK-5991
Epoch Orbit183
Epoch Day127.16667824
Epoch Year2023
RAAN126.6458
Inclination97.6558
Eccentricity0.0001988
Argument of Perigee130.9339
Mean Anonmoly57.2094
Mean Motion15.67786831
Decay Rate-0.00832811
L11 56331U 23058Q 23127.16667824 -.00832811 00000+0 -84020-2 0 9991
L22 56331 97.6558 126.6458 0001988 130.9339 57.2094 15.67786831 1837



Live tracking and technical data element details for STARLINK-5991 (NORAD 56331). STARLINK-5991 can be tracked NOW for your location showing map with azimuth and elevation plus other details from your city location.







IsCatalogInMostPopularTable: catalog: 56331, numindb: 2
Update: records affected: 1



GetName: 56331 STARLINK-5991

Hit Count: updated at: Mon, 05 Jun 2023 00:43:51 GMT